Date,TemperatureHighF,TemperatureAvgF,TemperatureLowF,DewpointHighF,DewpointAvgF,DewpointLowF,HumidityHigh,HumidityAvg,HumidityLow,PressureMaxIn,PressureMinIn,WindSpeedMaxMPH,WindSpeedAvgMPH,GustSpeedMaxMPH,PrecipitationSumIn
2013-1-1,39.6,36.3,33.0,0.0,0.0,0.0,0,0,100,0.00,0.00,20,2,25,0.00
2013-1-2,38.9,37.3,33.0,0.0,0.0,0.0,0,0,100,0.00,0.00,11,3,14,0.00
2013-1-3,40.1,38.1,35.9,0.0,0.0,0.0,0,0,100,0.00,0.00,20,5,21,0.01
2013-1-4,32.5,29.7,27.1,0.0,0.0,0.0,0,0,100,0.00,0.00,8,1,10,0.00
2013-1-5,34.7,32.4,30.5,0.0,0.0,0.0,0,0,100,0.00,0.00,12,1,13,0.00
2013-1-6,34.5,31.8,27.7,0.0,0.0,0.0,0,0,100,0.00,0.00,17,4,24,0.00
2013-1-7,33.2,29.8,27.8,0.0,0.0,0.0,0,0,100,0.00,0.00,13,1,14,0.00
2013-1-8,28.2,19.6,14.1,0.0,0.0,0.0,0,0,100,0.00,0.00,6,0,7,0.01
2013-1-9,19.0,15.5,1.7,0.0,0.0,0.0,0,0,100,0.00,0.00,0,0,1,0.00
2013-1-10,25.9,23.8,17.3,0.0,0.0,0.0,0,0,100,0.00,0.00,4,0,4,0.00
2013-1-11,30.0,26.7,23.9,0.0,0.0,0.0,0,0,100,0.00,0.00,6,0,6,0.01
2013-1-12,38.2,34.7,26.2,0.0,0.0,0.0,0,0,100,0.00,0.00,18,3,21,0.00
2013-1-13,40.6,39.1,35.8,0.0,0.0,0.0,0,0,100,0.00,0.00,12,2,17,0.00
2013-1-14,40.2,38.3,35.9,0.0,0.0,0.0,0,0,100,0.00,0.00,14,2,16,0.00
2013-1-15,26.6,24.4,22.1,0.0,0.0,0.0,0,0,100,0.00,0.00,4,0,7,0.00
2013-1-16,27.5,25.1,22.5,0.0,0.0,0.0,0,0,100,0.00,0.00,5,0,6,0.01
2013-1-17,24.4,18.2,14.1,0.0,0.0,0.0,0,0,100,0.00,0.00,0,0,0,0.00
2013-1-18,15.7,8.6,4.8,0.0,0.0,0.0,0,0,100,0.00,0.00,0,0,1,0.00
2013-1-19,26.9,22.4,11.5,0.0,0.0,0.0,0,0,100,0.00,0.00,11,1,13,0.00
2013-1-20,31.7,24.6,18.2,0.0,0.0,0.0,0,0,100,0.00,0.00,2,0,2,0.00
2013-1-21,22.9,16.7,12.9,0.0,0.0,0.0,0,0,100,0.00,0.00,1,0,2,0.00
2013-1-22,31.5,28.1,23.7,0.0,0.0,0.0,0,0,100,0.00,0.00,5,0,7,0.00
2013-1-23,38.4,30.6,19.7,0.0,0.0,0.0,0,0,100,0.00,0.00,6,0,7,0.00
2013-1-24,34.2,29.6,22.3,0.0,0.0,0.0,0,0,100,0.00,0.00,2,0,3,0.00
2013-1-25,23.7,14.0,0.2,0.0,0.0,0.0,0,0,100,0.00,0.00,9,1,10,0.01
2013-1-26,4.0,-6.3,-13.7,0.0,0.0,0.0,0,0,100,0.00,0.00,6,0,6,0.00
2013-1-27,-0.5,-10.1,-20.0,0.0,0.0,0.0,0,0,100,0.00,0.00,18,1,20,0.00
2013-1-28,13.3,3.2,-7.6,0.0,0.0,0.0,0,0,100,0.00,0.00,23,4,30,0.00
2013-1-29,18.4,12.7,7.8,0.0,0.0,0.0,0,0,100,0.00,0.00,15,2,18,0.00
2013-1-30,27.6,22.4,16.3,0.0,0.0,0.0,0,0,100,0.00,0.00,9,0,9,0.00
2013-1-31,38.2,32.2,27.2,0.0,0.0,0.0,0,0,100,0.00,0.00,2,0,2,0.00
2013-2-1,33.2,27.8,20.5,0.0,0.0,0.0,0,0,100,0.00,0.00,0,0,0,0.00
2013-2-2,37.4,26.9,20.3,0.0,0.0,0.0,0,0,100,0.00,0.00,7,0,8,0.00
2013-2-3,38.2,30.4,23.8,0.0,0.0,0.0,0,0,100,0.00,0.00,5,0,5,0.00
2013-2-4,41.1,34.4,24.7,0.0,0.0,0.0,0,0,100,0.00,0.00,12,2,16,0.00
2013-2-5,35.9,25.5,14.9,0.0,0.0,0.0,0,0,100,0.00,0.00,8,0,9,0.00
2013-2-6,33.7,27.5,17.3,0.0,0.0,0.0,0,0,100,0.00,0.00,0,0,0,0.00
2013-2-7,34.7,26.7,19.2,0.0,0.0,0.0,0,0,100,0.00,0.00,11,1,11,0.00
2013-2-8,37.7,28.9,23.7,0.0,0.0,0.0,0,0,100,0.00,0.00,2,0,3,0.00
2013-2-9,44.1,36.7,25.9,0.0,0.0,0.0,0,0,100,0.00,0.00,21,4,26,0.00
2013-2-10,40.6,36.8,33.7,0.0,0.0,0.0,0,0,100,0.00,0.00,23,2,23,0.00
2013-2-11,35.2,28.2,17.1,0.0,0.0,0.0,0,0,100,0.00,0.00,8,0,8,0.00
2013-2-12,33.7,26.6,16.8,0.0,0.0,0.0,0,0,100,0.00,0.00,2,0,6,0.00
2013-2-13,39.1,31.6,22.9,0.0,0.0,0.0,0,0,100,0.00,0.00,14,2,16,0.00
2013-2-14,42.6,35.6,30.0,0.0,0.0,0.0,0,0,100,0.00,0.00,24,5,25,0.00
2013-2-15,38.2,31.8,24.9,0.0,0.0,0.0,0,0,100,0.00,0.00,7,0,7,0.00
2013-2-16,31.0,23.6,14.4,0.0,0.0,0.0,0,0,100,0.00,0.00,9,0,9,0.00
2013-2-17,33.9,26.1,19.5,0.0,0.0,0.0,0,0,100,0.00,0.00,18,2,19,0.00
2013-2-18,28.8,16.2,0.9,0.0,0.0,0.0,0,0,100,0.00,0.00,11,0,12,0.00
2013-2-19,21.3,10.7,-0.5,0.0,0.0,0.0,0,0,100,0.00,0.00,8,0,9,0.02
2013-2-20,34.8,23.9,17.1,0.0,0.0,0.0,0,0,100,0.00,0.00,8,0,11,0.01
2013-2-21,36.2,24.5,16.5,0.0,0.0,0.0,0,0,100,0.00,0.00,7,0,8,0.00
2013-2-22,35.2,26.2,18.3,0.0,0.0,0.0,0,0,100,0.00,0.00,10,0,10,0.00
2013-2-23,36.7,25.9,16.4,0.0,0.0,0.0,0,0,100,0.00,0.00,10,1,11,0.00
2013-2-24,42.5,28.0,18.4,0.0,0.0,0.0,0,0,100,0.00,0.00,7,0,7,0.00
2013-2-25,38.4,25.0,11.6,0.0,0.0,0.0,0,0,100,0.00,0.00,22,2,23,0.00
2013-2-26,43.7,34.7,28.0,0.0,0.0,0.0,0,0,100,0.00,0.00,24,6,25,0.00
2013-2-27,41.5,34.5,28.5,0.0,0.0,0.0,0,0,100,0.00,0.00,24,5,29,0.00
2013-2-28,46.0,34.6,22.9,0.0,0.0,0.0,0,0,100,0.00,0.00,11,1,16,0.00
2013-3-1,40.4,29.3,21.3,0.0,0.0,0.0,0,0,100,0.00,0.00,4,0,4,0.00
2013-3-2,35.2,26.3,16.5,0.0,0.0,0.0,0,0,100,0.00,0.00,5,0,5,0.00
2013-3-3,42.2,24.3,11.7,0.0,0.0,0.0,0,0,100,0.00,0.00,6,0,6,0.01
2013-3-4,42.2,28.3,18.4,0.0,0.0,0.0,0,0,100,0.00,0.00,5,0,6,0.00
2013-3-5,41.1,27.3,17.6,0.0,0.0,0.0,0,0,100,0.00,0.00,8,0,8,0.00
2013-3-6,41.2,28.0,19.0,0.0,0.0,0.0,0,0,100,0.00,0.00,5,0,6,0.00
2013-3-7,43.7,34.9,21.9,0.0,0.0,0.0,0,0,100,0.00,0.00,20,2,21,0.00
2013-3-8,47.5,39.7,34.7,0.0,0.0,0.0,0,0,100,0.00,0.00,21,3,21,0.00
2013-3-9,47.5,39.8,34.5,0.0,0.0,0.0,0,0,100,0.00,0.00,12,1,13,0.00
2013-3-10,42.6,35.8,31.5,0.0,0.0,0.0,0,0,100,0.00,0.00,5,0,5,0.00
2013-3-11,39.6,30.6,22.3,0.0,0.0,0.0,0,0,100,0.00,0.00,32,2,32,0.00
2013-3-12,35.2,29.2,26.2,0.0,0.0,0.0,0,0,100,0.00,0.00,42,14,42,0.00
2013-3-13,32.7,24.8,19.2,0.0,0.0,0.0,0,0,100,0.00,0.00,36,10,42,0.00
2013-3-14,32.0,23.6,18.2,0.0,0.0,0.0,0,0,100,0.00,0.00,28,7,30,0.01
2013-3-15,38.4,24.4,19.2,0.0,0.0,0.0,0,0,100,0.00,0.00,22,6,23,0.00
2013-3-16,39.6,21.0,11.1,0.0,0.0,0.0,0,0,100,0.00,0.00,11,1,12,0.00
2013-3-17,38.2,16.5,3.1,0.0,0.0,0.0,0,0,100,0.00,0.00,8,0,9,0.01
2013-3-18,38.2,16.1,2.5,0.0,0.0,0.0,0,0,100,0.00,0.00,8,0,8,0.00
2013-3-19,39.6,20.1,7.2,0.0,0.0,0.0,0,0,100,0.00,0.00,13,2,14,0.01
2013-3-20,34.1,15.0,2.3,0.0,0.0,0.0,0,0,100,0.00,0.00,9,1,10,0.00
2013-3-21,34.5,15.3,-0.1,0.0,0.0,0.0,0,0,100,0.00,0.00,13,0,13,0.00
2013-3-22,38.9,29.5,23.1,0.0,0.0,0.0,0,0,100,0.00,0.00,18,4,18,0.00
2013-3-23,43.9,33.2,26.0,0.0,0.0,0.0,0,0,100,0.00,0.00,11,1,11,0.00
2013-3-24,37.4,27.3,20.5,0.0,0.0,0.0,0,0,100,0.00,0.00,7,0,8,0.00
2013-3-25,35.4,23.0,6.1,0.0,0.0,0.0,0,0,100,0.00,0.00,10,1,10,0.00
2013-3-26,34.7,11.9,-4.6,0.0,0.0,0.0,0,0,100,0.00,0.00,6,0,6,0.00
2013-3-27,31.7,9.5,-9.9,0.0,0.0,0.0,0,0,100,0.00,0.00,7,0,8,0.00
2013-3-28,42.2,25.6,14.9,0.0,0.0,0.0,0,0,100,0.00,0.00,7,0,9,0.00
2013-3-29,48.4,34.2,23.9,0.0,0.0,0.0,0,0,100,0.00,0.00,8,0,8,0.00
2013-3-30,50.8,36.0,26.4,0.0,0.0,0.0,0,0,100,0.00,0.00,7,0,7,0.00
2013-3-31,60.1,35.7,26.2,0.0,0.0,0.0,0,0,100,0.00,0.00,9,1,9,0.00
2013-4-1,50.5,33.6,22.9,0.0,0.0,0.0,0,0,100,0.00,0.00,9,1,10,0.00
2013-4-2,52.6,31.0,18.7,0.0,0.0,0.0,0,0,100,0.00,0.00,5,0,6,0.00
2013-4-3,58.6,36.3,26.5,0.0,0.0,0.0,0,0,100,0.00,0.00,9,0,9,0.00
2013-4-4,50.5,32.5,21.3,0.0,0.0,0.0,0,0,100,0.00,0.00,24,5,29,0.00
2013-4-5,55.1,31.2,22.3,0.0,0.0,0.0,0,0,100,0.00,0.00,23,4,23,0.00
2013-4-6,38.9,29.2,22.1,0.0,0.0,0.0,0,0,100,0.00,0.00,11,0,11,0.00
2013-4-7,38.2,26.7,7.5,0.0,0.0,0.0,0,0,100,0.00,0.00,8,0,8,0.00
2013-4-8,31.2,16.8,-0.1,0.0,0.0,0.0,0,0,100,0.00,0.00,6,0,6,0.00
2013-4-9,38.4,24.7,15.4,0.0,0.0,0.0,0,0,100,0.00,0.00,9,0,9,0.00
2013-4-10,52.1,20.7,3.0,0.0,0.0,0.0,0,0,100,0.00,0.00,11,1,11,0.00
2013-4-11,54.3,18.9,1.2,0.0,0.0,0.0,0,0,100,0.00,0.00,8,0,8,0.00
2013-4-12,62.3,18.6,-3.2,0.0,0.0,0.0,0,0,100,0.00,0.00,10,1,10,0.00
2013-4-13,62.3,27.3,8.7,0.0,0.0,0.0,0,0,100,0.00,0.00,10,2,12,0.00
2013-4-14,67.3,26.9,9.0,0.0,0.0,0.0,0,0,100,0.00,0.00,8,1,8,0.00
2013-4-15,68.8,31.8,15.4,0.0,0.0,0.0,0,0,100,0.00,0.00,14,2,16,0.00
2013-4-16,67.3,30.5,17.6,0.0,0.0,0.0,0,0,100,0.00,0.00,20,2,20,0.00
2013-4-17,68.0,29.2,13.2,0.0,0.0,0.0,0,0,100,0.00,0.00,9,1,9,0.00
2013-4-18,71.7,30.3,13.0,0.0,0.0,0.0,0,0,100,0.00,0.00,11,1,14,0.00
2013-4-19,63.4,34.9,19.5,0.0,0.0,0.0,0,0,100,0.00,0.00,12,1,14,0.00
2013-4-20,66.6,36.2,19.7,0.0,0.0,0.0,0,0,100,0.00,0.00,7,1,7,0.00
2013-4-21,54.3,35.9,22.1,0.0,0.0,0.0,0,0,100,0.00,0.00,7,1,9,0.00
2013-4-22,70.7,38.8,25.2,0.0,0.0,0.0,0,0,100,0.00,0.00,7,0,7,0.00
2013-4-23,50.2,40.2,34.2,0.0,0.0,0.0,0,0,100,0.00,0.00,6,0,6,0.00
2013-4-24,42.8,37.4,35.0,0.0,0.0,0.0,0,0,100,0.00,0.00,8,1,10,0.00
2013-4-25,57.5,38.5,26.9,0.0,-13.0,-99.9,0,0,100,0.00,0.00,36,6,36,0.00
2013-4-26,48.3,35.7,28.3,-99.9,-99.9,-99.9,0,0,100,0.00,40.00,37,6,39,0.00
2013-4-27,60.1,37.1,26.0,-99.9,-99.9,-99.9,0,0,100,0.00,40.00,23,5,24,0.00
2013-4-28,67.3,37.6,27.2,-99.9,-99.9,-99.9,0,0,100,0.00,40.00,19,4,23,0.00
2013-4-29,55.9,37.2,22.7,-99.9,-99.9,-99.9,0,0,100,0.00,40.00,8,1,8,0.00
2013-4-30,55.1,40.8,30.0,-99.9,-99.9,-99.9,0,0,100,0.00,40.00,11,2,14,0.00
2013-5-1,53.1,38.9,24.7,-99.9,-99.9,-99.9,0,0,100,0.00,40.00,13,2,17,0.00
2013-5-2,49.7,40.8,33.0,-99.9,-99.9,-99.9,0,0,100,0.00,40.00,8,0,10,0.00
2013-5-3,48.4,41.9,37.4,-99.9,-99.9,-99.9,0,0,100,0.00,40.00,11,1,11,0.00
2013-5-4,46.0,38.9,35.0,-99.9,-99.9,-99.9,0,0,100,0.00,40.00,10,1,10,0.00
2013-5-5,72.7,42.5,31.2,-99.9,-99.9,-99.9,0,0,100,0.00,40.00,11,1,11,0.00
2013-5-6,68.8,42.3,29.7,-99.9,-99.9,-99.9,0,0,100,0.00,40.00,9,1,9,0.00
2013-5-7,59.1,44.0,30.0,-99.9,-99.9,-99.9,0,0,100,0.00,40.00,9,1,9,0.00
2013-5-8,77.4,45.0,29.2,-99.9,-99.9,-99.9,0,0,100,0.00,40.00,10,2,10,0.00
2013-5-10,68.2,56.2,33.0,-99.9,-99.9,-99.9,0,0,100,0.00,40.00,8,1,8,0.00
2013-5-11,69.9,51.7,39.1,-99.9,-99.9,-99.9,0,0,100,0.00,40.00,9,1,12,0.00
2013-5-12,60.6,50.0,42.1,-99.9,-99.9,-99.9,0,0,100,0.00,40.00,5,0,6,0.00
2013-5-13,65.4,49.5,39.9,-99.9,-99.9,-99.9,0,0,100,0.00,40.00,15,2,16,0.00
2013-5-14,53.8,41.7,30.2,-99.9,-99.9,-99.9,0,0,100,0.00,40.00,11,1,11,0.00
2013-5-15,59.1,47.9,33.0,-99.9,-99.9,-99.9,0,0,100,0.00,40.00,11,2,14,0.00
2013-5-16,49.2,43.3,38.2,-99.9,-99.9,-99.9,0,0,100,0.00,40.00,11,2,13,0.00
2013-5-17,44.2,40.1,35.0,-99.9,-99.9,-99.9,0,0,100,0.00,40.00,8,1,10,0.00
2013-5-18,50.0,38.2,29.2,-99.9,-99.9,-99.9,0,0,100,0.00,40.00,10,1,10,0.00
2013-5-19,73.6,41.6,25.2,-99.9,-99.9,-99.9,0,0,100,0.00,40.00,11,2,13,0.00
2013-5-20,80.9,44.0,26.2,-99.9,-99.9,-99.9,0,0,100,0.00,40.00,11,1,14,0.00
2013-5-21,78.1,46.5,29.1,-99.9,-99.9,-99.9,0,0,100,0.00,40.00,13,2,15,0.00
2013-5-22,73.0,50.7,32.7,-99.9,-99.9,-99.9,0,0,100,0.00,40.00,10,2,11,0.00
2013-5-23,79.1,53.7,42.1,-99.9,-99.9,-99.9,0,0,100,0.00,40.00,9,1,11,0.00
2013-5-24,94.7,55.3,39.6,-99.9,-99.9,-99.9,0,0,100,0.00,40.00,10,1,10,0.00
2013-5-25,99.0,57.0,37.9,-99.9,-99.9,-99.9,0,0,100,0.00,40.00,10,2,11,0.00
2013-5-26,77.1,55.3,38.0,-99.9,-99.9,-99.9,0,0,100,0.00,40.00,11,1,11,0.00
2013-5-27,96.9,61.2,43.3,-99.9,-99.9,-99.9,0,0,100,0.00,40.00,9,1,10,0.00
2013-5-28,94.7,60.9,40.8,-99.9,-99.9,-99.9,0,0,100,0.00,40.00,8,1,9,0.00
2013-5-29,101.0,62.7,44.1,-99.9,-99.9,-99.9,0,0,100,0.00,40.00,10,1,10,0.00
2013-5-30,89.5,59.5,44.3,-99.9,-99.9,-99.9,0,0,100,0.00,40.00,12,2,14,0.00
2013-5-31,80.1,55.5,41.4,-99.9,-99.9,-99.9,0,0,100,0.00,40.00,13,2,13,0.00
2013-6-1,66.6,54.5,48.7,-99.9,-99.9,-99.9,0,0,100,0.00,40.00,9,1,10,0.00
2013-6-2,73.3,51.9,47.1,-99.9,-99.9,-99.9,0,0,100,0.00,40.00,8,0,9,0.00
2013-6-3,69.3,54.7,44.6,-99.9,-99.9,-99.9,0,0,100,0.00,40.00,8,0,9,0.00
2013-6-4,76.1,57.9,47.5,-99.9,-99.9,-99.9,0,0,100,0.00,40.00,12,1,13,0.00
2013-6-5,81.9,54.2,36.7,-99.9,-99.9,-99.9,0,0,100,0.00,40.00,10,1,11,0.00
2013-6-6,87.3,55.5,37.7,-99.9,-99.9,-99.9,0,0,100,0.00,40.00,10,1,12,0.00
2013-6-7,95.4,58.0,41.7,-99.9,-99.9,-99.9,0,0,100,0.00,40.00,14,1,16,0.00
2013-6-8,91.9,59.5,43.1,-99.9,-99.9,-99.9,0,0,100,0.00,40.00,9,1,11,0.00
2013-6-9,94.3,62.9,45.3,-99.9,-99.9,-99.9,0,0,100,0.00,40.00,13,1,14,0.00
2013-6-10,86.5,64.2,47.5,-99.9,-99.9,-99.9,0,0,100,0.00,40.00,13,1,16,0.00
2013-6-11,94.3,63.2,46.6,-99.9,-99.9,-99.9,0,0,100,0.00,40.00,11,1,13,0.00
2013-6-12,90.9,67.5,48.8,-99.9,-99.9,-99.9,0,0,100,0.00,40.00,10,2,12,0.00
2013-6-13,88.7,63.5,48.6,-99.9,-99.9,-99.9,0,0,100,0.00,40.00,14,1,15,0.00
2013-6-14,93.3,61.0,42.8,-99.9,-99.9,-99.9,0,0,100,0.00,40.00,10,1,11,0.00
2013-6-15,54.7,49.9,47.1,-99.9,-99.9,-99.9,0,0,100,0.00,40.00,0,0,0,0.00
2013-6-17,79.0,70.2,61.8,-99.9,-99.9,-99.9,0,0,100,0.00,40.00,4,0,6,0.00
2013-6-18,102.4,71.2,53.5,-99.9,-99.9,-99.9,0,0,100,0.00,40.00,20,2,25,0.00
2013-6-19,95.4,67.6,54.9,-99.9,-99.9,-99.9,0,0,100,0.00,40.00,14,1,14,0.00
2013-6-20,88.0,62.7,48.2,-99.9,-99.9,-99.9,0,0,100,0.00,40.00,12,1,13,0.00
2013-6-21,79.3,58.2,49.1,-99.9,-99.9,-99.9,0,0,100,0.00,40.00,11,1,14,0.00
2013-6-22,86.2,59.8,46.1,-99.9,-99.9,-99.9,0,0,100,0.00,40.00,10,1,10,0.00
2013-6-23,85.5,63.3,47.8,-99.9,-99.9,-99.9,0,0,100,0.00,40.00,9,0,11,0.00
2013-6-24,91.0,64.0,52.0,-99.9,-99.9,-99.9,0,0,100,0.00,40.00,11,1,13,0.00
2013-6-25,94.3,63.9,48.3,-99.9,-99.9,-99.9,0,0,100,0.00,40.00,10,1,12,0.00
2013-6-26,99.8,69.1,52.9,-99.9,-99.9,-99.9,0,0,100,0.00,40.00,11,1,13,0.00
2013-6-27,88.1,66.0,56.2,-99.9,-99.9,-99.9,0,0,100,0.00,40.00,9,1,12,0.00
2013-6-28,62.6,59.5,56.4,-99.9,-99.9,-99.9,0,0,100,0.00,40.00,5,0,6,0.00
2013-6-29,74.6,62.8,54.9,-99.9,-99.9,-99.9,0,0,100,0.00,40.00,8,0,10,0.00
2013-6-30,64.9,58.9,54.3,-99.9,-99.9,-99.9,0,0,100,0.00,40.00,5,0,6,0.00
2013-7-1,62.6,55.7,51.8,-99.9,-99.9,-99.9,0,0,100,0.00,40.00,8,0,8,0.00
2013-7-2,83.0,57.6,47.9,-99.9,-99.9,-99.9,0,0,100,0.00,40.00,9,1,9,0.00
2013-7-3,70.6,58.1,50.2,-99.9,-99.9,-99.9,0,0,100,0.00,40.00,5,0,5,0.00
2013-7-4,59.1,54.8,50.5,-99.9,-99.9,-99.9,0,0,100,0.00,40.00,6,0,7,0.00
2013-7-5,71.7,57.8,50.2,-99.9,-99.9,-99.9,0,0,100,0.00,40.00,6,0,9,0.00
2013-7-6,68.3,56.8,50.5,-99.9,-99.9,-99.9,0,0,100,0.00,40.00,6,0,6,0.00
2013-7-7,87.6,59.1,48.2,-99.9,-99.9,-99.9,0,0,100,0.00,40.00,11,1,11,0.00
2013-7-8,77.8,56.4,50.5,-99.9,-99.9,-99.9,0,0,100,0.00,40.00,8,0,8,0.00
2013-7-9,87.2,61.8,51.8,-99.9,-99.9,-99.9,0,0,100,0.00,40.00,10,1,13,0.00
2013-7-10,93.0,64.6,52.9,-99.9,-99.9,-99.9,0,0,100,0.00,40.00,9,1,9,0.00
2013-7-11,60.1,57.6,56.0,-99.9,-99.9,-99.9,0,0,100,0.00,40.00,0,0,0,0.00
2013-7-14,69.1,61.8,55.4,-99.9,-99.9,-99.9,0,0,100,0.00,40.00,9,1,10,0.00
2013-7-15,69.6,59.1,49.2,-99.9,-99.9,-99.9,0,0,100,0.00,40.00,7,0,9,0.00
2013-7-16,82.6,64.8,54.3,-99.9,-99.9,-99.9,0,0,100,0.00,40.00,10,1,11,0.00
2013-7-17,79.3,66.6,58.1,-99.9,-99.9,-99.9,0,0,100,0.00,40.00,9,0,12,0.00
2013-7-18,79.3,67.2,56.2,-99.9,-99.9,-99.9,0,0,100,0.00,40.00,8,0,8,0.00
2013-7-19,92.1,68.2,59.8,-99.9,-99.9,-99.9,0,0,100,0.00,40.00,12,2,15,0.00
2013-7-20,87.9,63.8,56.0,-99.9,-99.9,-99.9,0,0,100,0.00,40.00,12,1,12,0.00
2013-7-21,96.3,64.0,46.9,-99.9,-99.9,-99.9,0,0,100,0.00,40.00,15,1,17,0.00
2013-7-22,97.1,66.3,53.5,-99.9,-99.9,-99.9,0,0,100,0.00,40.00,12,1,12,0.00
2013-7-23,97.4,65.8,51.4,-99.9,-99.9,-99.9,0,0,100,0.00,40.00,8,1,10,0.00
2013-7-24,98.3,68.5,50.6,-99.9,-99.9,-99.9,0,0,100,0.00,40.00,10,1,10,0.00
2013-7-25,94.5,68.9,59.3,-99.9,-99.9,-99.9,0,0,100,0.00,40.00,9,1,9,0.00
2013-7-26,91.3,66.2,58.6,-99.9,-99.9,-99.9,0,0,100,0.00,40.00,9,1,12,0.00
2013-7-27,80.3,66.6,57.1,-99.9,-99.9,-99.9,0,0,100,0.00,40.00,8,1,9,0.00
2013-7-28,95.9,67.8,59.1,-99.9,-99.9,-99.9,0,0,100,0.00,40.00,9,1,10,0.00
2013-7-29,95.0,66.6,54.4,-99.9,-99.9,-99.9,0,0,100,0.00,40.00,8,0,8,0.00
2013-7-30,95.9,66.9,56.8,-99.9,-99.9,-99.9,0,0,100,0.00,40.00,9,1,10,0.00
2013-7-31,71.7,63.9,59.9,-99.9,-99.9,-99.9,0,0,100,0.00,40.00,8,1,8,0.00
2013-8-1,72.7,59.6,51.1,-99.9,-99.9,-99.9,0,0,100,0.00,40.00,7,0,8,0.00
2013-8-2,81.4,68.9,55.1,-99.9,-99.9,-99.9,0,0,100,0.00,40.00,10,1,10,0.00
2013-8-3,74.6,64.3,57.2,-99.9,-99.9,-99.9,0,0,100,0.00,40.00,11,1,12,0.00
2013-8-4,73.6,62.5,54.3,-99.9,-99.9,-99.9,0,0,100,0.00,40.00,7,0,7,0.00
2013-8-5,74.6,63.2,54.3,-99.9,-99.9,-99.9,0,0,100,0.00,40.00,7,0,7,0.00
2013-8-6,73.0,61.6,51.3,-99.9,-99.9,-99.9,0,0,100,0.00,40.00,9,0,9,0.00
2013-8-7,66.9,58.9,54.3,-99.9,-99.9,-99.9,0,0,100,0.00,40.00,9,0,9,0.00
2013-8-8,78.2,60.2,52.1,-99.9,-99.9,-99.9,0,0,100,0.00,40.00,11,1,16,0.00
2013-8-9,64.9,56.1,51.3,-99.9,-99.9,-99.9,0,0,100,0.00,40.00,9,0,10,0.00
2013-8-10,73.3,57.5,50.5,-99.9,-99.9,-99.9,0,0,100,0.00,40.00,6,0,7,0.00
2013-8-11,64.3,57.8,52.1,-99.9,-99.9,-99.9,0,0,100,0.00,40.00,5,0,7,0.00
2013-8-12,75.8,63.0,56.7,-99.9,-99.9,-99.9,0,0,100,0.00,40.00,6,0,7,0.00
2013-8-13,84.3,62.9,55.7,-99.9,-99.9,-99.9,0,0,100,0.00,40.00,10,1,12,0.00
2013-8-14,57.7,56.8,56.4,-99.9,-99.9,-99.9,0,0,100,0.00,40.00,0,0,0,0.00
2013-8-18,68.3,59.7,54.3,-99.9,-99.9,-99.9,0,0,100,0.00,40.00,7,0,7,0.00
2013-8-19,58.6,54.9,52.6,-99.9,-99.9,-99.9,0,0,100,0.00,40.00,7,0,7,0.00
2013-8-20,53.0,51.9,51.3,-99.9,-99.9,-99.9,0,0,100,0.00,40.00,6,0,7,0.00
2013-8-21,60.6,55.8,51.0,-99.9,-99.9,-99.9,0,0,100,0.00,40.00,9,1,9,0.00
2013-8-22,60.6,53.4,51.0,-99.9,-99.9,-99.9,0,0,100,0.00,40.00,7,1,8,0.00
2013-8-23,75.8,62.5,52.6,-99.9,-99.9,-99.9,0,0,100,0.00,40.00,16,1,16,0.00
2013-8-24,62.3,50.2,43.2,-99.9,-99.9,-99.9,0,0,100,0.00,40.00,6,0,7,0.00
2013-8-27,65.7,56.5,52.6,-99.9,-99.9,-99.9,0,0,100,0.00,40.00,4,0,7,0.00
2013-8-28,66.6,56.1,51.3,-99.9,-99.9,-99.9,0,0,100,0.00,40.00,6,0,7,0.00
2013-8-29,62.3,55.7,51.3,-99.9,-99.9,-99.9,0,0,100,0.00,40.00,8,1,9,0.00
2013-8-30,63.2,55.4,50.0,-99.9,-99.9,-99.9,0,0,100,0.00,40.00,5,0,5,0.00
2013-8-31,58.3,52.8,48.2,-99.9,-99.9,-99.9,0,0,100,0.00,40.00,6,0,10,0.00
2013-9-1,60.6,54.2,50.2,-99.9,-99.9,-99.9,0,0,100,0.00,40.00,8,1,8,0.00
2013-9-2,62.6,55.5,52.6,-99.9,-99.9,-99.9,0,0,100,0.00,40.00,11,2,16,0.00
2013-9-3,68.8,56.1,51.0,-99.9,-99.9,-99.9,0,0,100,0.00,40.00,12,2,14,0.00
2013-9-6,55.9,50.6,42.9,-99.9,-99.9,-99.9,0,0,100,0.00,40.00,19,2,19,0.00
2013-9-7,63.2,54.7,48.4,-99.9,-99.9,-99.9,0,0,100,0.00,40.00,12,1,15,0.00
2013-9-10,57.8,53.8,51.3,-99.9,-99.9,-99.9,0,0,100,0.00,40.00,2,0,2,0.00
2013-9-11,56.7,52.3,48.7,-99.9,-99.9,-99.9,0,0,100,0.00,40.00,8,0,9,0.00
2013-9-12,62.9,50.6,42.2,-99.9,-99.9,-99.9,0,0,100,0.00,40.00,4,0,4,0.00
2013-9-13,63.1,53.3,47.5,-99.9,-99.9,-99.9,0,0,100,0.00,40.00,10,1,11,0.00
2013-9-14,66.5,49.2,37.9,-99.9,-99.9,-99.9,0,0,100,0.00,40.00,7,0,7,0.00
2013-9-15,63.7,46.5,37.4,-99.9,-99.9,-99.9,0,0,100,0.00,40.00,11,1,11,0.00
2013-9-16,57.8,44.3,33.7,-99.9,-99.9,-99.9,0,0,100,0.00,40.00,10,0,10,0.00
2013-9-17,56.2,48.5,43.9,-99.9,-99.9,-99.9,0,0,100,0.00,40.00,6,0,7,0.00
2013-9-18,49.7,45.3,42.2,-99.9,-99.9,-99.9,0,0,100,0.00,40.00,3,0,3,0.00
2013-9-19,53.5,44.5,36.7,-99.9,-99.9,-99.9,0,0,100,0.00,40.00,10,1,10,0.00
2013-9-20,49.0,35.0,26.2,-99.9,-99.9,-99.9,0,0,100,0.00,40.00,6,0,6,0.00
2013-9-21,48.2,38.8,29.2,-99.9,-99.9,-99.9,0,0,100,0.00,40.00,9,1,10,0.00
2013-9-22,46.8,41.9,38.7,-99.9,-99.9,-99.9,0,0,100,0.00,40.00,14,2,16,0.00
2013-9-23,46.0,38.4,29.8,-99.9,-99.9,-99.9,0,0,100,0.00,40.00,10,1,11,0.00
2013-9-24,44.3,36.7,27.2,-99.9,-99.9,-99.9,0,0,100,0.00,40.00,4,0,4,0.00
2013-9-25,50.5,44.2,39.6,-99.9,-99.9,-99.9,0,0,100,0.00,40.00,7,1,8,0.00
2013-9-26,53.1,46.6,43.5,-99.9,-99.9,-99.9,0,0,100,0.00,40.00,7,0,8,0.00
2013-9-27,57.0,49.8,39.6,-99.9,-99.9,-99.9,0,0,100,0.00,40.00,18,2,18,0.00
2013-9-28,51.8,41.1,32.5,-99.9,-99.9,-99.9,0,0,100,0.00,40.00,9,0,9,0.00
2013-9-29,55.4,45.5,38.2,-99.9,-99.9,-99.9,0,0,100,0.00,40.00,10,1,12,0.00
2013-9-30,52.9,39.3,28.8,-99.9,-99.9,-99.9,0,0,100,0.00,40.00,7,0,10,0.00
2013-10-1,49.6,40.6,30.0,-99.9,-99.9,-99.9,0,0,100,0.00,40.00,6,0,6,0.00
2013-10-2,51.7,43.6,38.2,-99.9,-99.9,-99.9,0,0,100,0.00,40.00,9,0,10,0.00
2013-10-3,54.2,43.1,32.3,-99.9,-99.9,-99.9,0,0,100,0.00,40.00,20,2,26,0.00
2013-10-4,52.4,42.0,34.0,-99.9,-99.9,-99.9,0,0,100,0.00,40.00,6,0,9,0.00
2013-10-5,51.7,40.5,32.5,-99.9,-99.9,-99.9,0,0,100,0.00,40.00,7,0,8,0.00
2013-10-6,47.8,41.9,37.8,-99.9,-99.9,-99.9,0,0,100,0.00,40.00,4,0,4,0.00
2013-10-7,50.4,42.0,34.0,-99.9,-99.9,-99.9,0,0,100,0.00,40.00,7,0,8,0.00
2013-10-8,46.6,44.0,41.2,-99.9,-99.9,-99.9,0,0,100,0.00,40.00,20,4,22,0.00
2013-10-26,42.8,33.1,29.9,-99.9,-99.9,-99.9,0,0,100,0.00,40.00,8,0,8,0.00
2013-10-27,47.3,39.3,31.0,-99.9,-99.9,-99.9,0,0,100,0.00,40.00,22,2,22,0.00
2013-10-28,54.8,45.7,40.2,-99.9,-99.9,-99.9,0,0,100,0.00,40.00,24,2,28,0.00
2013-10-29,45.6,37.5,30.3,-99.9,-99.9,-99.9,0,0,100,0.00,40.00,8,0,10,0.00
2013-10-30,46.6,39.1,31.0,-99.9,-99.9,-99.9,0,0,100,0.00,40.00,15,1,16,0.00
2013-10-31,42.9,38.1,34.0,-99.9,-99.9,-99.9,0,0,100,0.00,40.00,5,0,5,0.00
2013-11-1,44.4,40.4,36.8,-99.9,-99.9,-99.9,0,0,100,0.00,40.00,4,0,6,0.00
2013-11-2,42.5,39.0,34.8,-99.9,-99.9,-99.9,0,0,100,0.00,40.00,6,0,7,0.00
2013-11-3,46.6,41.7,36.3,-99.9,-99.9,-99.9,0,0,100,0.00,40.00,12,3,14,0.00
2013-11-4,42.0,34.7,27.6,-99.9,-99.9,-99.9,0,0,100,0.00,40.00,12,1,14,0.00
2013-11-5,38.2,33.6,26.9,-99.9,-99.9,-99.9,0,0,100,0.00,40.00,7,0,8,0.00
2013-11-6,28.2,23.1,18.4,-99.9,-99.9,-99.9,0,0,100,0.00,40.00,6,0,6,0.00
2013-11-7,32.3,25.1,18.2,-99.9,-99.9,-99.9,0,0,100,0.00,40.00,12,2,14,0.00
2013-11-8,24.7,18.3,13.8,-99.9,-99.9,-99.9,0,0,100,0.00,40.00,11,0,14,0.00
2013-11-9,31.1,24.7,13.9,-99.9,-99.9,-99.9,0,0,100,0.00,40.00,6,0,6,0.00
2013-11-10,37.7,34.1,30.0,-99.9,-99.9,-99.9,0,0,100,0.00,40.00,11,1,14,0.00
2013-11-11,29.7,28.7,28.0,-99.9,-99.9,-99.9,0,0,100,0.00,40.00,0,0,0,0.00
2013-11-12,17.5,12.5,7.5,-99.9,-99.9,-99.9,0,0,100,0.00,40.00,6,0,6,0.00
2013-11-13,31.0,24.6,17.3,-99.9,-99.9,-99.9,0,0,100,0.00,40.00,4,0,4,0.00
2013-11-14,35.2,27.9,16.5,-99.9,-99.9,-99.9,0,0,100,0.00,40.00,4,0,6,0.00
2013-11-15,27.4,17.7,9.6,-99.9,-99.9,-99.9,0,0,100,0.00,40.00,2,0,2,0.00
2013-11-16,21.5,15.2,8.3,-99.9,-99.9,-99.9,0,0,100,0.00,40.00,16,0,16,0.00
2013-11-17,16.7,9.3,1.5,-99.9,-99.9,-99.9,0,0,100,0.00,40.00,13,1,14,0.00
2013-11-18,6.4,-0.0,-5.7,-99.9,-99.9,-99.9,0,0,100,0.00,40.00,5,0,6,0.00
2013-11-19,2.8,-4.3,-8.8,-99.9,-99.9,-99.9,0,0,100,0.00,40.00,0,0,0,0.00
2013-11-20,8.7,-1.3,-10.7,-99.9,-99.9,-99.9,0,0,100,0.00,40.00,23,2,23,0.00
2013-11-21,19.2,11.8,5.8,-99.9,-99.9,-99.9,0,0,100,0.00,40.00,22,8,29,0.00
2013-11-22,34.5,26.5,17.9,-99.9,-99.9,-99.9,0,0,100,0.00,40.00,18,2,23,0.00
2013-11-23,26.9,20.7,9.3,-99.9,-99.9,-99.9,0,0,100,0.00,40.00,9,1,9,0.00
2013-11-24,34.0,28.5,20.3,-99.9,-99.9,-99.9,0,0,100,0.00,40.00,6,0,8,0.00
2013-11-25,27.7,23.3,19.7,-99.9,-99.9,-99.9,0,0,100,0.00,40.00,2,0,3,0.00
2013-11-26,30.5,27.5,23.1,-99.9,-99.9,-99.9,0,0,100,0.00,40.00,1,0,1,0.00
2013-11-27,31.7,28.7,19.2,-99.9,-99.9,-99.9,0,0,100,0.00,40.00,12,0,16,0.00
2013-11-28,20.3,12.8,-4.2,-99.9,-99.9,-99.9,0,0,100,0.00,40.00,11,1,12,0.00
2013-11-29,2.4,-6.1,-11.1,-99.9,-99.9,-99.9,0,0,100,0.00,40.00,0,0,0,0.00
2013-11-30,15.5,-3.2,-12.3,-99.9,-99.9,-99.9,0,0,100,0.00,40.00,18,1,23,0.00
2013-12-1,1.4,-4.5,-7.6,-99.9,-99.9,-99.9,0,0,100,0.00,40.00,4,0,4,0.00
2013-12-2,5.4,-0.6,-6.0,-99.9,-99.9,-99.9,0,0,100,0.00,40.00,0,0,2,0.00
2013-12-3,16.7,7.1,0.2,-99.9,-99.9,-99.9,0,0,100,0.00,40.00,0,0,0,0.00
2013-12-4,26.2,20.7,15.4,-99.9,-99.9,-99.9,0,0,100,0.00,40.00,0,0,0,0.00
2013-12-5,33.2,29.4,25.7,-99.9,-99.9,-99.9,0,0,100,0.00,40.00,2,0,3,0.00
2013-12-6,35.7,33.9,31.7,-99.9,-99.9,-99.9,0,0,100,0.00,40.00,2,0,2,0.00
2013-12-7,35.9,34.2,33.2,-99.9,-99.9,-99.9,0,0,100,0.00,40.00,1,0,1,0.00
2013-12-8,34.5,32.4,29.2,-99.9,-99.9,-99.9,0,0,100,0.00,40.00,0,0,0,0.00
2013-12-9,33.2,30.4,26.9,-99.9,-99.9,-99.9,0,0,100,0.00,40.00,0,0,0,0.00
2013-12-10,33.0,30.0,26.4,-99.9,-99.9,-99.9,0,0,100,0.00,40.00,15,0,18,0.00
2013-12-11,30.7,24.5,18.2,-99.9,-99.9,-99.9,0,0,100,0.00,40.00,42,13,48,0.00
2013-12-12,19.2,17.3,13.8,-99.9,-99.9,-99.9,0,0,100,0.00,40.00,25,2,35,0.00
2013-12-13,23.1,18.8,12.4,-99.9,-99.9,-99.9,0,0,100,0.00,40.00,25,7,29,0.00
2013-12-14,23.7,19.6,16.0,-99.9,-99.9,-99.9,0,0,100,0.00,40.00,7,0,8,0.00
2013-12-15,19.7,13.7,-1.8,-99.9,-99.9,-99.9,0,0,100,0.00,40.00,7,0,7,0.00
2013-12-16,9.3,-0.1,-10.7,-99.9,-99.9,-99.9,0,0,100,0.00,40.00,5,0,6,0.01
2013-12-17,0.5,-10.2,-16.7,-99.9,-99.9,-99.9,0,0,100,0.00,40.00,3,0,4,0.01
2013-12-18,11.0,-7.0,-18.6,-99.9,-99.9,-99.9,0,0,100,0.00,40.00,5,0,5,0.00
2013-12-19,14.9,9.1,2.8,-99.9,-99.9,-99.9,0,0,100,0.00,40.00,0,0,0,0.00
2013-12-20,25.4,18.0,10.6,-99.9,-99.9,-99.9,0,0,100,0.00,40.00,0,0,0,0.00
2013-12-21,30.5,27.8,24.5,-99.9,-99.9,-99.9,0,0,100,0.00,40.00,0,0,0,0.00
2013-12-22,31.7,28.2,21.0,-99.9,-99.9,-99.9,0,0,100,0.00,40.00,2,0,2,0.00
2013-12-23,21.5,0.3,-9.6,-99.9,-99.9,-99.9,0,0,100,0.00,40.00,0,0,0,0.00
2013-12-24,-8.4,-14.7,-18.6,-99.9,-99.9,-99.9,0,0,100,0.00,40.00,0,0,0,0.01
2013-12-25,-10.1,-15.3,-20.0,-99.9,-99.9,-99.9,0,0,100,0.00,40.00,0,0,0,0.00
2013-12-26,11.9,1.6,-11.9,-99.9,-99.9,-99.9,0,0,100,0.00,40.00,0,0,0,0.00
2013-12-27,14.7,0.4,-10.7,-99.9,-99.9,-99.9,0,0,100,0.00,40.00,0,0,0,0.01
2013-12-28,23.9,19.3,14.1,-99.9,-99.9,-99.9,0,0,100,0.00,40.00,0,0,0,0.00
2013-12-29,19.2,13.5,8.7,-99.9,-99.9,-99.9,0,0,100,0.00,40.00,0,0,0,0.00
2013-12-30,14.1,10.8,6.1,-99.9,-99.9,-99.9,0,0,100,0.00,40.00,0,0,0,0.00
2013-12-31,31.5,16.4,5.1,-99.9,-99.9,-99.9,0,0,100,0.00,40.00,24,3,27,0.00
2014-1-1,36.7,32.7,29.0,-99.9,-99.9,-99.9,0,0,100,0.00,40.00,22,5,25,0.00
2014-1-2,32.0,29.5,25.9,-99.9,-99.9,-99.9,0,0,100,0.00,40.00,6,0,7,0.00